Weather History for KRAC - February, 2013

Change the Weather History Date:

Saturday, February 2, 2013

  Actual Average Record
Temperature  
Mean Temperature 10 °F -  
Max Temperature 15 °F 30 °F 45 °F (1987)
Min Temperature 6 °F 13 °F -19 °F (1951)
Degree Days  
Heating Degree Days 54    
Moisture  
Dew Point 6 °F    
Average Humidity 79    
Maximum Humidity 93    
Minimum Humidity 59    
Precipitation  
Precipitation 0.04 in - - ()
Sea Level Pressure  
Sea Level Pressure 30.08 in    
Wind  
Wind Speed 7 mph (NW)    
Max Wind Speed 13 mph    
Max Gust Speed -    
Visibility 5 miles    
Events Snow    
Averages and records for this station are not official NWS values.
T = Trace of Precipitation, MM = Missing Value Source: NWS Daily Summary

Daily Weather History Graph

Daily Weather History Graph

Search for Another Location

Airport or City:

Trip Planner

Search our weather history database for the weather conditions in past years. The results will help you decide how hot, cold, wet, or windy it might be!

Date:

Astronomy

Feb. 02, 2013 Rise Set
Actual Time 7:04 AM CST 5:06 PM CST
Civil Twilight 6:34 AM CST 5:36 PM CST
Nautical Twilight 6:00 AM CST 6:09 PM CST
Astronomical Twilight 5:27 AM CST 6:42 PM CST
Moon No Moon Rise 10:03 AM CST (2/2)
Length of Visible Light 11h 01m
Length of Day
10h 01m
Waning Gibbous, 59% of the Moon is Illuminated
Feb 2
Waning Gibbous
Feb 3
Last Quarter
Feb 10
New
Feb 17
First Quarter
Feb 25
Full

Hourly Weather History & Observations

Time (CST) Temp. Windchill Dew Point Humidity Pressure Visibility Wind Dir Wind Speed Gust Speed Precip Events Conditions
12:53 AM 10.9 °F 1.4 °F 7.0 °F 84% 30.17 in 1.8 mi SSW 5.8 mph - 0.00 in Snow Light Snow
1:37 AM 10.4 °F 4.0 °F 8.6 °F 92% 30.10 in 2.0 mi South 3.5 mph - 0.01 in Snow Light Snow
1:53 AM 10.9 °F 4.7 °F 8.1 °F 88% 30.14 in 2.0 mi South 3.5 mph - 0.01 in Snow Light Snow
2:12 AM 12.2 °F 4.3 °F 8.6 °F 85% 30.09 in 1.5 mi South 4.6 mph - 0.00 in Snow Light Snow
2:53 AM 12.9 °F 3.8 °F 10.0 °F 88% 30.11 in 3.0 mi SSW 5.8 mph - 0.01 in Snow Light Snow
3:07 AM 12.2 °F 1.7 °F 10.4 °F 92% 30.06 in 2.0 mi SSW 6.9 mph - 0.00 in Snow Light Snow
3:16 AM 14.0 °F 3.9 °F 10.4 °F 86% 30.05 in 1.5 mi SW 6.9 mph - 0.00 in Snow Light Snow
3:53 AM 14.0 °F 5.1 °F 10.9 °F 88% 30.08 in 1.0 mi SW 5.8 mph - 0.00 in Snow Light Snow
4:05 AM 14.0 °F 3.9 °F 10.4 °F 86% 30.03 in 3.0 mi SW 6.9 mph - 0.00 in Snow Light Snow
4:12 AM 14.0 °F 5.1 °F 10.4 °F 86% 30.03 in 5.0 mi SW 5.8 mph - 0.00 in Snow Light Snow
4:53 AM 15.1 °F 9.4 °F 12.0 °F 88% 30.07 in 5.0 mi West 3.5 mph - 0.01 in Snow Light Snow
5:53 AM 14.0 °F 8.2 °F 12.0 °F 92% 30.06 in 3.0 mi WNW 3.5 mph - 0.00 in Snow Light Snow
6:09 AM 14.0 °F - 12.2 °F 93% 30.02 in 2.0 mi Calm Calm - 0.00 in Snow Light Snow
6:20 AM 14.0 °F 8.2 °F 12.2 °F 93% 30.02 in 1.8 mi NW 3.5 mph - 0.00 in Snow Light Snow
6:40 AM 14.0 °F 6.5 °F 10.4 °F 86% 30.02 in 2.5 mi NW 4.6 mph - 0.01 in Snow Light Snow
6:53 AM 12.9 °F 3.8 °F 10.0 °F 88% 30.07 in 2.0 mi NNW 5.8 mph - 0.01 in Snow Light Snow
7:18 AM 12.2 °F -0.2 °F 10.4 °F 92% 30.03 in 3.0 mi NNW 9.2 mph - 0.00 in Snow Light Snow
7:48 AM 10.4 °F -2.4 °F 8.6 °F 92% 30.04 in 2.0 mi NNW 9.2 mph - 0.00 in Snow Light Snow
7:53 AM 10.9 °F -1.8 °F 8.1 °F 88% 30.09 in 1.8 mi NNW 9.2 mph - 0.00 in Snow Light Snow
8:43 AM 10.4 °F -2.4 °F 6.8 °F 85% 30.06 in 1.8 mi NNW 9.2 mph - 0.00 in Snow Light Snow
8:49 AM 10.4 °F -1.5 °F 6.8 °F 85% 30.06 in 2.5 mi NNW 8.1 mph - 0.00 in Snow Light Snow
8:50 AM 10.0 °F -0.9 °F 6.1 °F 84% 30.10 in 2.5 mi NNW 6.9 mph - 0.00 in Snow Light Snow
8:59 AM 10.4 °F -3.3 °F 6.8 °F 85% 30.06 in 2.5 mi NNW 10.4 mph - 0.00 in Snow Light Snow
9:09 AM 10.4 °F -3.3 °F 6.8 °F 85% 30.06 in 1.8 mi NNW 10.4 mph - 0.00 in Snow Light Snow
9:49 AM 10.4 °F -2.4 °F 5.0 °F 79% 30.06 in 3.0 mi NNW 9.2 mph - 0.00 in Snow Light Snow
9:50 AM 10.0 °F -1.9 °F 5.0 °F 80% 30.10 in 3.0 mi NNW 8.1 mph - 0.00 in Snow Light Snow
10:02 AM 10.4 °F -4.8 °F 3.2 °F 73% 30.06 in 5.0 mi NNW 12.7 mph - 0.00 in Snow Light Snow
10:53 AM 10.0 °F -3.7 °F 3.0 °F 73% 30.11 in 10.0 mi NNW 10.4 mph - 0.00 in   Overcast
11:53 AM 10.9 °F -4.1 °F 3.0 °F 70% 30.10 in 10.0 mi NNW 12.7 mph - N/A   Overcast
12:53 PM 10.9 °F -4.1 °F 3.0 °F 70% 30.10 in 10.0 mi NNW 12.7 mph - N/A   Overcast
1:41 PM 12.2 °F 0.7 °F 3.2 °F 67% 30.05 in 10.0 mi North 8.1 mph - N/A   Mostly Cloudy
1:53 PM 12.9 °F -0.9 °F 3.9 °F 67% 30.09 in 10.0 mi North 11.5 mph - N/A   Scattered Clouds
2:08 PM 12.2 °F -0.2 °F 3.2 °F 67% 30.05 in 10.0 mi NW 9.2 mph - N/A   Mostly Cloudy
2:16 PM 12.2 °F -1.8 °F 1.4 °F 62% 30.06 in 10.0 mi NNW 11.5 mph - N/A   Partly Cloudy
2:53 PM 12.9 °F 0.7 °F 3.9 °F 67% 30.11 in 10.0 mi NNW 9.2 mph - N/A   Scattered Clouds
3:53 PM 12.9 °F -0.2 °F 1.9 °F 62% 30.12 in 10.0 mi NNW 10.4 mph - N/A   Clear
4:53 PM 12.0 °F 2.7 °F -0.0 °F 59% 30.12 in 10.0 mi NW 5.8 mph - N/A   Clear
5:53 PM 10.9 °F 0.2 °F 1.0 °F 64% 30.12 in 10.0 mi WNW 6.9 mph - N/A   Clear
6:53 PM 9.0 °F -5.1 °F -0.0 °F 67% 30.13 in 10.0 mi WNW 10.4 mph - N/A   Mostly Cloudy
7:53 PM 8.1 °F -4.3 °F -0.9 °F 67% 30.13 in 10.0 mi WNW 8.1 mph - N/A   Overcast
8:53 PM 8.1 °F -3.2 °F -0.9 °F 67% 30.11 in 10.0 mi WNW 6.9 mph - N/A   Overcast
9:53 PM 6.1 °F -2.8 °F -0.9 °F 73% 30.10 in 10.0 mi West 4.6 mph - N/A   Partly Cloudy
10:53 PM 7.0 °F -4.5 °F -2.0 °F 67% 30.08 in 10.0 mi WNW 6.9 mph - N/A   Overcast
11:53 PM 7.0 °F -3.3 °F -0.9 °F 70% 30.07 in 10.0 mi West 5.8 mph - N/A   Overcast